Showing default

YAOGAN-30 P, 44450

Orbit data source: Space-Track

YAOGAN-30 P, 44450 is a payload satellite owned by PLA SSF (CN) in LEO that was launched on Fri, 26 Jul 2019 UTC via a CHANG ZHENG 2C launch vehicle from the Xichang Space Center, China (XSC). Payload-class satellites include a variety of spacecraft equipped with specific instruments for various scientific and technological missions. These include communications satellites like Starlink; space stations such as the ISS; scientific satellites like the Hubble; Earth observation satellites from companies like Planet Labs, Umbra, and HawkEye 360; GPS; miniature CubeSats for education and research; and military/defense satellites.

Loading next visibility...
Identifier
44450, 2019-045B
Orbit
LEO
Country
Flag of CNCN / PRC
Related business
Manufacturer
SECM
Mission
Operational Defense Sigint
Bus & Motor
Unknown
Mass
~500 kg wet, ~500 kg dry
Launch date (UTC)
2019-07-26 (7 years ago)
Launch vehicle
CHANG ZHENG 2C
Launch site
Xichang Space Center, China (XSC)
Object type
Payload
Rocket body
Debris
Shape & HBR
Box + 2 Pan, 0.5 m
Radar Cross Section
0.446 m², Large (>1 m²)

Expand to show TLE details & history
Last TLE update: 22 hours ago

TLE from 22 hours ago
0 YAOGAN-30 P
1 44450U 19045B   26172.53638376  .00002043  00000-0  15202-3 0  9997
2 44450  34.9931 303.1176 0007741 113.5921 246.5600 15.02713377377310
Epoch: 2026-06-21T12:52Z
TLE epoch observation values (Epoch: 2026-06-21T12:52:23.556Z)
Latitude
-0.00007°
Longitude
-159.71589°
Altitude
559.589 km
Speed
7.583 km/s
True Right ascension
20h 12m 28s
True Declination
0° 00' 00"
Sunlit
Object was in full shadow at epoch
Visualization orbit readout
Latitude
Unknown
Longitude
Unknown
Altitude
Unknown
Speed
Unknown
Apparent Right ascension
Unknown
Apparent Declination
Unknown
Sunlit
N/A
Visualization observer readout
Local Sidereal Time
21:29:12
Azimuth
Unknown
Elevation
Unknown
Doppler factor
Unknown
Orbital elements
Apogee altitude
567.128 km
Perigee altitude
556.384 km
Semi-major axis
6,939.893 km
Eccentricity
0.00077
Inclination
34.9931°
RAAN
303.1176°
Arg. of periapsis
113.5921°
True anomaly
246.47865°
Mean anomaly
246.56°
Eccentric anomaly
246.51932°
Mean motion
3.75417 °/min
Orbital period
95.89 mins
BSTAR
0.00015202
Loading maneuver chart data...
Computing Atmospheric mass density...
Loading historical data...
Loading historical data...
Loading historical data...
Loading historical data...
Loading historical data...
Loading historical data...
Loading historical data...
Other satellites on launch #45 in the year 2019 (2019-07-26 UTC)

Documentation

Showing up to 5 results
|